Cosmos 1300 - Orbit

View from above orbital plane
View from above orbital plane
View from above satellite
View from above satellite

Ground track
Ground track

The orbit data is extracted from the following two-line orbital elements,

1 12785U 81082A   13141.87350824  .00003444  00000-0  22210-3 0  4461
2 12785 082.4765 096.4387 0008499 158.1954 235.4233 15.07981721726904
Epoch (UTC): 21 May 2013 20:57:51
Eccentricity: 0.0008499
inclination: 82.4765°
perigee height: 536 km
apogee height: 548 km
right ascension of ascending node: 96.4387°
argument of perigee: 158.1954°
revolutions per day: 15.07981721
mean anomaly at epoch: 235.4233°
orbit number at epoch: 72690

The dashed part of the orbit path shows where the satellite is in the earth's shadow,  

Developed and maintained by Chris Peat, Heavens-Above GmbH. Please read the updated FAQ before sending e-mail. Imprint. DLR